Skip Page Navigation
NASA JPL Caltech
NASA Logo - Jet Propulsion Laboratory + View the NASA Portal
+ Center for Near-Earth Object Studies
JPL Home Earth Solar System Stars & Galaxies Technology
JPL Solar System Dynamics
BODIES ORBITS EPHEMERIDES TOOLS PHYSICAL DATA DISCOVERY FAQ SITE MAP
IMPORTANT: The SSD Announcement email list is now available. Major changes are coming in the near future, including possible hostname and/or URL changes. To be notified of such changes, subscribe to this email list.

Please visit this page for more details.


JPL Small-Body Database Browser
Search: [ help ]  
65220 (2002 EH22)
Classification: Main-belt Asteroid          SPK-ID: 2065220
Ephemeris | Orbit Diagram | Orbital Elements | Mission Design | Physical Parameters | Discovery Circumstances ]

[ show orbit diagram ]
Orbital Elements at Epoch 2458600.5 (2019-Apr-27.0) TDB
Reference: JPL 24 (heliocentric ecliptic J2000)
 Element Value Uncertainty (1-sigma)   Units 
e .1526337331718341 5.8387e-08  
a 2.755475260323922 2.09e-08 au
q 2.33489678467805 1.5549e-07 au
i 10.76834001929264 4.793e-06 deg
node 139.59538083683 2.9553e-05 deg
peri 217.9914915901504 3.3525e-05 deg
M 77.69871061659981 1.6554e-05 deg
tp 2458239.917610663253
(2018-May-01.41761066)
7.6253e-05 TDB
period 1670.679720822753
4.57
1.9008e-05
5.204e-08
d
yr
n .2154811574672806 2.4516e-09 deg/d
Q 3.176053735969794 2.409e-08 au
  Orbit Determination Parameters
   # obs. used (total)      688  
   data-arc span      8046 days (22.03 yr)  
   first obs. used      1997-01-31  
   last obs. used      2019-02-11  
   planetary ephem.      DE431  
   SB-pert. ephem.      SB431-N16  
   condition code      0  
   norm. resid. RMS      .56364  
   source      ORB  
   producer      Otto Matic  
   solution date      2019-Jul-13 04:04:44  

Additional Information
 Earth MOID = 1.33876 au 
 Jupiter MOID = 2.26952 au 
 T_jup = 3.301 
[ show covariance matrix ]

Ephemeris | Orbit Diagram | Orbital Elements | Mission Design | Physical Parameters | Discovery Circumstances ]

Physical Parameter Table
Parameter Symbol Value Units Sigma Reference Notes
absolute magnitude H 15.0   n/a MPO337760  
diameter diameter 6.710 km 0.139 urn:nasa:pds:neowise_diameters_albedos::2.0[mainbelt] (http://adsabs.harvard.edu/abs/2011ApJ...741...68M)  
geometric albedo albedo 0.052   0.006 urn:nasa:pds:neowise_diameters_albedos::2.0[mainbelt] (http://adsabs.harvard.edu/abs/2011ApJ...741...68M)  

65220 (2002 EH22)          Discovered 2002-Mar-10 by NEAT at Haleakala
Reference: 20030614/Numbers.arcLast Updated: 2004-04-19
Ephemeris | Orbit Diagram | Orbital Elements | Mission Design | Physical Parameters | Discovery Circumstances ]
ABOUT SSD CREDITS/AWARDS PRIVACY/COPYRIGHT GLOSSARY LINKS
FirstGov 2020-Jan-23 17:25 UT
(server date/time)  
NASA Home Page
Site Manager:   Ryan S. Park
Webmaster  Alan B. Chamberlin